Home > Time Zones > World Clock > Weather > India > Thane > Past weeks

Flag for India Weather past 2 weeks in Thane, Maharashtra, India

Now
86 °F

Scattered clouds.


Feels Like: 97 °F
Forecast: 81 / 87 °F
Wind: 16 mph from Southwest

Location: Bombay / Santacruz

Current Time: Jul 7, 2015 at 8:39:19 AM

Latest Report: Jul 7, 2015 at 7:40 AM


Visibility: 2 mi

Pressure: 29.68 "Hg

Humidity: 75%

Dew point: 77 °F

Location of ThaneLocation

Historic Weather in Thane — Graph

°F

Thane temperature yesterday

Maximum temperature yesterday: 90 °F (at 1:40 PM)
Minimum temperature yesterday: 84 °F (at 12:10 AM)
Average temperature yesterday: 86 °F

Past Weeks' High & Low Weather Summary

 TemperatureHumidityPressure
High90 °F (Jun 28, 2:40 PM)100% (Jun 22, 9:40 AM)29.86 "Hg (Jun 22, 9:40 AM)
Low79 °F (Jun 23, 6:40 AM)63% (Jul 3, 1:40 PM)29.42 "Hg (Jun 23, 4:40 AM)
Average85 °F79%29.70 "Hg
* Reported Jun 22 7:40 AM — Jul 7 7:40 AM, Thane, Weather by CustomWeather, © 2015

Note: Actual official high and low records may vary slightly from our data, if they occured in-between our weather recording intervals... More about our weather records

Advertising

Thane weather history for previous 24 hours

 ConditionsComfort  
Time TempWeatherWind HumidityBarometerVisibility
7:40 AM
Tue, Jul 7
86 °FScattered clouds.16 mph75%29.68 "Hg2 mi
7:10 AM84 °FScattered clouds.12 mph84%29.68 "Hg2 mi
6:40 AM84 °FBroken clouds.9 mph84%29.65 "Hg2 mi
6:10 AM84 °FPartly cloudy.12 mph84%29.65 "Hg2 mi
5:40 AM84 °FPartly cloudy.12 mph79%29.65 "Hg2 mi
5:10 AM84 °FPartly cloudy.12 mph84%29.65 "Hg2 mi
4:10 AM84 °FPartly cloudy.14 mph84%29.62 "Hg2 mi
3:40 AM84 °FPartly cloudy.15 mph84%29.65 "Hg2 mi
3:10 AM84 °FPartly cloudy.15 mph79%29.65 "Hg2 mi
2:40 AM84 °FPartly cloudy.14 mph79%29.65 "Hg2 mi
2:10 AM84 °FPartly cloudy.17 mph84%29.68 "Hg2 mi
1:40 AM84 °FPartly cloudy.14 mph79%29.68 "Hg2 mi
1:10 AM84 °FPartly cloudy.15 mph79%29.68 "Hg2 mi
12:40 AM84 °FPartly cloudy.13 mph79%29.71 "Hg2 mi
12:10 AM84 °FPassing clouds.14 mph79%29.71 "Hg2 mi
11:40 PM
Mon, Jul 6
84 °FPassing clouds.12 mph79%29.71 "Hg2 mi
11:10 PM84 °FPassing clouds.14 mph79%29.71 "Hg2 mi
10:40 PM84 °FPassing clouds.10 mph79%29.71 "Hg2 mi
10:10 PM84 °FPartly cloudy.13 mph79%29.71 "Hg2 mi
9:40 PM86 °FSprinkles. Partly cloudy.14 mph75%29.71 "Hg2 mi
9:10 PM86 °FPartly cloudy.15 mph75%29.71 "Hg2 mi
8:40 PM86 °FPassing clouds.14 mph75%29.68 "Hg2 mi
8:10 PM86 °FPartly cloudy.16 mph75%29.68 "Hg2 mi
7:40 PM86 °FBroken clouds.17 mph75%29.68 "Hg2 mi
7:10 PM86 °FScattered clouds.10 mph75%29.68 "Hg3 mi
6:40 PM86 °FScattered clouds.15 mph75%29.68 "Hg3 mi
6:10 PM86 °FScattered clouds.14 mph75%29.68 "Hg3 mi
3:10 PM88 °FScattered clouds.20 mph70%29.68 "Hg2 mi
2:40 PM88 °FScattered clouds.20 mph70%29.71 "Hg2 mi
2:10 PM88 °FScattered clouds.15 mph70%29.71 "Hg2 mi
1:40 PM90 °FScattered clouds.21 mph67%29.71 "Hg2 mi
1:10 PM88 °FScattered clouds.15 mph70%29.74 "Hg2 mi
12:40 PM88 °FScattered clouds.17 mph75%29.74 "Hg2 mi
12:10 PM88 °FScattered clouds.16 mph75%29.74 "Hg2 mi
11:40 AM88 °FScattered clouds.16 mph70%29.74 "Hg2 mi
11:10 AM88 °FScattered clouds.16 mph70%29.74 "Hg2 mi
10:40 AM88 °FScattered clouds.18 mph70%29.74 "Hg2 mi
10:10 AM88 °FScattered clouds.17 mph70%29.74 "Hg2 mi
9:40 AM86 °FLight rain. Broken clouds.14 mph75%29.74 "Hg2 mi
9:10 AM86 °FScattered clouds.14 mph75%29.74 "Hg2 mi
8:40 AM86 °FScattered clouds.16 mph75%29.74 "Hg2 mi
8:10 AM86 °FScattered clouds.12 mph75%29.71 "Hg2 mi
Weather by CustomWeather, © 2015

See weather overviewHow to use our weather pages